Location: Buckeye Ditch
(40.9104°N, 122.9517°W)
Time: 12:20:36
(UTC+00:00)

Explorer 7 - Pass Details

Date: 24 May 2025
Orbit: 445 x 571 km, 50.3° (Epoch: 22 June)

Event Time Altitude Azimuth Distance (km) Brightness Sun altitude
Rises 13:49:04 0° 305° (NW) 2,587 9.9 10.0°
Reaches altitude 10° 13:51:17 10° 312° (NW) 1,725 9.1 10.4°
Maximum altitude 13:55:03 44° 26° (NNE) 733 8.1 11.0°
Drops below altitude 10° 13:58:58 10° 99° (E) 1,795 10.8 11.7°
Sets 14:01:19 0° 106° (ESE) 2,706 11.4 12.2°
